New Paris, IN

5:44 AM EST on February 22, 2017 (GMT -0500)
Goshen Municipal

Weather History for KGSH - November, 2011

Change the Weather History Date:

Thursday, November 24, 2011

  Actual Average Record
Temperature  
Mean Temperature 40 °F -  
Max Temperature 46 °F 44 °F 68 °F (2014)
Min Temperature 35 °F 29 °F -4 °F (1950)
Degree Days  
Heating Degree Days 24    
Moisture  
Dew Point 37 °F    
Average Humidity 89    
Maximum Humidity 100    
Minimum Humidity 79    
Precipitation  
Precipitation 0.00 in - - ()
Sea Level Pressure  
Sea Level Pressure 30.23 in    
Wind  
Wind Speed 11 mph (SW)    
Max Wind Speed 18 mph    
Max Gust Speed 25 mph    
Visibility 4 miles    
Events Fog    
Averages and records for this station are not official NWS values.
T = Trace of Precipitation, MM = Missing Value Source: NWS Daily Summary

Daily Weather History Graph

Daily Weather History Graph

Search for Another Location

Airport or City:

Trip Planner

Search our weather history database for the weather conditions in past years. The results will help you decide how hot, cold, wet, or windy it might be!

Date:

Astronomy

Nov. 24, 2011 Rise Set
Actual Time 7:42 AM EST 5:17 PM EST
Civil Twilight 7:11 AM EST 5:47 PM EST
Nautical Twilight 6:37 AM EST 6:21 PM EST
Astronomical Twilight 6:04 AM EST 6:54 PM EST
Moon 6:59 AM EST (11/24) 4:46 PM EST (11/24)
Length of Visible Light 10h 35m
Length of Day
9h 34m
Waning Crescent, 0% of the Moon is Illuminated
Nov 24
Waning Crescent
Nov 25
New
Dec 2
First Quarter
Dec 10
Full
Dec 17
Last Quarter

Hourly Weather History & Observations

Time (EST) Temp. Windchill Dew Point Humidity Pressure Visibility Wind Dir Wind Speed Gust Speed Precip Events Conditions
12:53 AM 36.0 °F 29.6 °F 33.1 °F 89% 30.26 in 3.0 mi SW 8.1 mph - N/A   Clear
1:53 AM 36.0 °F 30.3 °F 33.1 °F 89% 30.25 in 3.0 mi SSW 6.9 mph - N/A   Clear
2:12 AM 35.6 °F 29.9 °F 33.8 °F 93% 30.23 in 2.5 mi SSW 6.9 mph - N/A   Clear
2:20 AM 35.6 °F 29.9 °F 33.8 °F 93% 30.23 in 2.5 mi SW 6.9 mph - N/A   Scattered Clouds
2:28 AM 35.6 °F 29.2 °F 33.8 °F 93% 30.23 in 2.5 mi SW 8.1 mph - N/A   Mostly Cloudy
2:40 AM 37.4 °F 30.3 °F 33.8 °F 87% 30.23 in 1.8 mi SW 10.4 mph - N/A   Overcast
2:53 AM 37.0 °F 29.3 °F 35.1 °F 93% 30.25 in 0.8 mi SW 11.5 mph - N/A   Overcast
3:01 AM 37.4 °F 30.3 °F 35.6 °F 93% 30.23 in 0.5 mi SW 10.4 mph - N/A Fog Fog
3:38 AM 37.4 °F 29.8 °F 35.6 °F 93% 30.23 in 0.2 mi SSW 11.5 mph - N/A Fog Fog
3:53 AM 37.9 °F 30.9 °F 36.0 °F 93% 30.25 in 0.2 mi SW 10.4 mph - N/A Fog Fog
4:06 AM 37.4 °F 31.4 °F 37.4 °F 100% 30.24 in 0.2 mi SW 8.1 mph - N/A Fog Fog
4:53 AM 37.0 °F 30.4 °F 36.0 °F 96% 30.27 in 0.2 mi SW 9.2 mph - N/A Fog Fog
5:44 AM 37.4 °F 28.9 °F 35.6 °F 93% 30.24 in 0.8 mi SW 13.8 mph - N/A   Mist
6:16 AM 37.4 °F 29.8 °F 35.6 °F 93% 30.24 in 0.8 mi SW 11.5 mph - N/A   Overcast
6:28 AM 37.4 °F 28.9 °F 37.4 °F 100% 30.25 in 1.2 mi WSW 13.8 mph - N/A   Overcast
6:50 AM 37.4 °F 30.3 °F 37.4 °F 100% 30.25 in 0.8 mi SW 10.4 mph - N/A   Overcast
6:53 AM 37.9 °F 30.9 °F 37.0 °F 97% 30.27 in 0.5 mi SW 10.4 mph - N/A Fog Fog
7:02 AM 39.2 °F 33.0 °F 37.4 °F 93% 30.25 in 0.8 mi SW 9.2 mph - N/A   Overcast
7:09 AM 39.2 °F 32.0 °F 37.4 °F 93% 30.25 in 1.2 mi SW 11.5 mph 20.7 mph N/A   Overcast
7:39 AM 39.2 °F 30.5 °F 37.4 °F 93% 30.26 in 2.5 mi SW 16.1 mph 20.7 mph N/A   Overcast
7:53 AM 39.0 °F 30.3 °F 37.0 °F 93% 30.28 in 4.0 mi SW 16.1 mph 20.7 mph N/A   Overcast
8:53 AM 39.9 °F 33.4 °F 37.9 °F 93% 30.29 in 5.0 mi SW 10.4 mph - N/A   Overcast
9:53 AM 39.9 °F 32.1 °F 37.9 °F 93% 30.29 in 4.0 mi SW 13.8 mph - N/A   Overcast
10:38 AM 41.0 °F 32.8 °F 37.4 °F 87% 30.27 in 8.0 mi SW 16.1 mph 23.0 mph N/A   Overcast
10:53 AM 42.1 °F 35.2 °F 39.0 °F 89% 30.30 in 8.0 mi SSW 12.7 mph - N/A   Overcast
11:53 AM 43.0 °F 36.0 °F 39.0 °F 86% 30.28 in 6.0 mi SSW 13.8 mph 21.9 mph N/A   Overcast
12:53 PM 44.1 °F 37.7 °F 39.9 °F 85% 30.26 in 8.0 mi SSW 12.7 mph 21.9 mph N/A   Overcast
1:32 PM 44.6 °F 37.4 °F 39.2 °F 81% 30.23 in 7.0 mi SSW 16.1 mph - N/A   Overcast
1:53 PM 45.0 °F 38.2 °F 39.9 °F 82% 30.25 in 6.0 mi SSW 15.0 mph - N/A   Haze
2:53 PM 46.0 °F 38.8 °F 39.9 °F 79% 30.22 in 7.0 mi SSW 18.4 mph 25.3 mph N/A   Overcast
3:53 PM 46.0 °F 39.0 °F 41.0 °F 83% 30.22 in 8.0 mi SSW 17.3 mph - N/A   Overcast
4:53 PM 46.0 °F 39.9 °F 41.0 °F 83% 30.20 in 8.0 mi SSW 13.8 mph - N/A   Overcast
5:53 PM 44.1 °F 38.1 °F 39.9 °F 85% 30.19 in 8.0 mi SSW 11.5 mph - N/A   Partly Cloudy
6:22 PM 44.6 °F 38.8 °F 39.2 °F 81% 30.18 in 8.0 mi South 11.5 mph - N/A   Mostly Cloudy
6:45 PM 44.6 °F 38.4 °F 39.2 °F 81% 30.18 in 8.0 mi South 12.7 mph - N/A   Scattered Clouds
6:53 PM 44.1 °F 37.4 °F 39.9 °F 85% 30.19 in 8.0 mi South 13.8 mph - N/A   Partly Cloudy
7:53 PM 43.0 °F 36.8 °F 39.9 °F 89% 30.20 in 8.0 mi SSW 11.5 mph - N/A   Clear
8:53 PM 43.0 °F 35.7 °F 39.9 °F 89% 30.18 in 8.0 mi SSW 15.0 mph - N/A   Clear
9:53 PM 43.0 °F 36.0 °F 39.0 °F 86% 30.17 in 8.0 mi SSW 13.8 mph - N/A   Clear
10:53 PM 43.0 °F 35.7 °F 37.9 °F 82% 30.16 in 8.0 mi SSW 15.0 mph - N/A   Clear
11:53 PM 42.1 °F 35.7 °F 37.0 °F 82% 30.15 in 8.0 mi SSW 11.5 mph - N/A   Clear